Retour au catalogue

ABS 6

LMI 1

ActifCommunicationsGEO
NORAD 25924·PAYLOAD·🇦🇪 UAE🇧🇲 BM

Lancé Sep 26, 1999 depuis Baikonur Cosmodrome

Loading…

TLE

FraisSource: Space-Track

Époque: Sep 14, 2026, 12:49 UTC

1 25924U 99053A   26257.53422340 -.00000127  00000-0  00000-0 0  9994
2 25924   0.0237 238.9434 0001699 254.5361 211.3583  1.00272616 98735

Suivez ABS 6 en temps réel avec AllMySat

Download on the App Store